COSMOS 2251 DEB, 34918

Orbit data source: Space-Track

COSMOS 2251 DEB, 34918 is space debris in LEO originally from a launch on Wed, 16 Jun 1993 UTC launched from the Plesetsk Missile And Space Complex (PKMTR). The debris from Iridium 33, an American commercial communications satellite, has been tracked extensively since its accidental collision with the defunct Russian satellite Cosmos 2251 in 2009. This event, occurring at high speed in low Earth orbit (LEO), generated thousands of pieces of space debris, significantly increasing the risk of further collisions. The Iridium 33 debris cloud has impacted space traffic management and orbital debris mitigation strategies, making it a subject of ongoing study in space situational awareness.

Loading next visibility...
Identifier
34918, 1993-036ADP
Orbit
LEO
Country
Flag of CISCIS
Related business
Manufacturer
Unknown
Mission
Spacecraft
Bus & Motor
Unknown
Mass
Unknown
Launch date (UTC)
1993-06-16 (33 years ago)
Launch vehicle
Unknown
Launch site
Plesetsk Missile And Space Complex (PKMTR)
Object type
Payload
Rocket body
Debris
Shape & HBR
Unknown shape, 0.1 m
Radar Cross Section
Small (<0.1 m²)

Expand to show TLE details & history
Last TLE update: 4 days ago

TLE from 4 days ago
0 COSMOS 2251 DEB
1 34918U 93036ADP 26058.73686052  .00007608  00000-0  14931-2 0  9995
2 34918  74.0710 166.5626 0026893 113.3417  37.3040 14.62624432664610
Epoch: 2026-02-27T17:41Z
TLE epoch observation values (Epoch: 2026-02-27T17:41:04.748Z)
Latitude
27.99656°
Longitude
-84.95598°
Altitude
672.775 km
Speed
7.531 km/s
True Right ascension
22h 31m 31s
True Declination
27° 51' 09"
Sunlit
Object was in daylight at epoch
Visualization orbit readout
Latitude
Unknown
Longitude
Unknown
Altitude
Unknown
Speed
Unknown
Apparent Right ascension
Unknown
Apparent Declination
Unknown
Sunlit
N/A
Visualization observer readout
Local Sidereal Time
12:43:43
Azimuth
Unknown
Elevation
Unknown
Doppler factor
Unknown
Orbital elements
Apogee altitude
701.292 km
Perigee altitude
663.317 km
Semi-major axis
7,060.441 km
Eccentricity
0.00269
Inclination
74.071°
RAAN
166.5626°
Arg. of periapsis
113.3417°
True anomaly
37.49127°
Mean anomaly
37.304°
Eccentric anomaly
37.39758°
Mean motion
3.65844 °/min
Orbital period
98.4 mins
BSTAR
0.0014931
Loading maneuver chart data...
Computing Atmospheric mass density...
Loading historical data...
Loading historical data...
Loading historical data...
Loading historical data...
Loading historical data...
Loading historical data...
Loading historical data...

Documentation

Showing up to 5 results
|